Location: Marcé
(47.5801°N, 0.3280°W)
Time: 20:13:03
(UTC+01:00)

Vanguard 3 - Pass Details

Date: 14 December 2021
Orbit: 508 x 3260 km, 33.3° (Epoch: 17 January)

Event Time Altitude Azimuth Distance (km) Brightness Sun altitude
Exits shadow 08:12:48 - 277° (W) 7,205 11.4 -5.0°
Rises 08:12:50 0° 277° (W) 7,197 11.4 -5.0°
Reaches altitude 10° 08:19:09 10° 266° (W) 6,197 11.1 -4.1°
Maximum altitude 08:32:27 24° 223° (SW) 4,735 11.0 -2.2°
Drops below altitude 10° 08:43:31 10° 178° (S) 5,049 11.8 -0.6°
Sets 08:48:00 0° 164° (SSE) 5,639 12.4 0.0°
